Omaha, NE

11:06 AM CST on December 04, 2016 (GMT -0600)
Millard Municipal

Weather History for KMLE - May, 2014

Change the Weather History Date:

Friday, May 30, 2014

  Actual Average (KOMA) Record (KOMA)
Temperature  
Mean Temperature 76 °F 67 °F  
Max Temperature 86 °F 78 °F 103 °F (1934)
Min Temperature 67 °F 56 °F 42 °F (1897)
Degree Days  
Heating Degree Days 0 2  
Month to date heating degree days 145  
Since 1 July heating degree days 6147  
Cooling Degree Days 12 4  
Month to date cooling degree days 61  
Year to date cooling degree days 77  
Growing Degree Days 26 (Base 50)    
Moisture  
Dew Point 65 °F    
Average Humidity 68    
Maximum Humidity 92    
Minimum Humidity 46    
Precipitation  
Precipitation 0.00 in 0.17 in 3.31 in (1961)
Month to date precipitation 4.59  
Year to date precipitation 11.11  
Snow  
Snow 0.00 in 0.00 in - ()
Month to date snowfall 0.1  
Since 1 July snowfall 26.5  
Snow Depth -    
Sea Level Pressure  
Sea Level Pressure 30.02 in    
Wind  
Wind Speed 4 mph (SE)    
Max Wind Speed 17 mph    
Max Gust Speed 22 mph    
Visibility 10 miles    
Events Thunderstorm    
T = Trace of Precipitation, MM = Missing Value Source: NWS Daily Summary

Daily Weather History Graph

Daily Weather History Graph

Search for Another Location

Airport or City:

Trip Planner

Search our weather history database for the weather conditions in past years. The results will help you decide how hot, cold, wet, or windy it might be!

Date:

Astronomy

May. 30, 2014 Rise Set
Actual Time 5:54 AM CDT 8:49 PM CDT
Civil Twilight 5:22 AM CDT 9:22 PM CDT
Nautical Twilight 4:40 AM CDT 10:04 PM CDT
Astronomical Twilight 3:52 AM CDT 10:52 PM CDT
Moon 7:40 AM CDT (5/30) 10:26 PM CDT (5/30)
Length of Visible Light 16h 00m
Length of Day
14h 54m
Waxing Crescent, 4% of the Moon is Illuminated
May 30
Waxing Crescent
Jun 5
First Quarter
Jun 12
Full
Jun 19
Last Quarter
Jun 27
New

Hourly Weather History & Observations

Time (CDT) Temp. Heat Index Dew Point Humidity Pressure Visibility Wind Dir Wind Speed Gust Speed Precip Events Conditions
12:15 AM 73.2 °F - 64.8 °F 75% 30.01 in 10.0 mi ESE 4.6 mph - N/A   Clear
12:35 AM 72.5 °F - 64.8 °F 77% 30.01 in 10.0 mi SE 3.5 mph - N/A   Clear
12:55 AM 72.7 °F - 65.3 °F 78% 30.01 in 10.0 mi ESE 3.5 mph - N/A   Clear
1:15 AM 71.8 °F - 65.1 °F 79% 30.02 in 10.0 mi Calm Calm - N/A   Clear
1:35 AM 70.9 °F - 65.5 °F 83% 30.01 in 10.0 mi Calm Calm - N/A   Clear
1:55 AM 70.2 °F - 65.3 °F 85% 30.01 in 10.0 mi Calm Calm - N/A   Clear
2:15 AM 69.4 °F - 65.3 °F 87% 30.01 in 10.0 mi Calm Calm - N/A   Clear
2:35 AM 69.1 °F - 65.5 °F 88% 30.01 in 10.0 mi Calm Calm - N/A   Clear
2:55 AM 68.9 °F - 65.3 °F 88% 30.01 in 10.0 mi Calm Calm - N/A   Clear
3:15 AM 68.7 °F - 64.9 °F 88% 30.01 in 10.0 mi Calm Calm - N/A   Clear
3:35 AM 68.2 °F - 64.9 °F 89% 30.01 in 10.0 mi Calm Calm - N/A   Clear
3:55 AM 68.9 °F - 64.9 °F 87% 30.01 in 10.0 mi Calm Calm - N/A   Clear
4:15 AM 68.0 °F - 64.9 °F 90% 30.01 in 7.0 mi Calm Calm - N/A   Clear
4:35 AM 67.3 °F - 64.9 °F 92% 30.02 in 7.0 mi Calm Calm - N/A   Clear
4:55 AM 68.2 °F - 64.9 °F 89% 30.02 in 7.0 mi Calm Calm - N/A   Clear
5:15 AM 67.8 °F - 64.8 °F 90% 30.02 in 7.0 mi Calm Calm - N/A   Clear
5:35 AM 68.2 °F - 64.8 °F 89% 30.02 in 10.0 mi SE 3.5 mph - N/A   Clear
5:55 AM 68.0 °F - 64.4 °F 88% 30.02 in 10.0 mi Calm Calm - N/A   Clear
6:15 AM 68.0 °F - 64.4 °F 88% 30.03 in 10.0 mi Calm Calm - N/A   Clear
6:35 AM 68.0 °F - 64.4 °F 88% 30.03 in 10.0 mi ESE 3.5 mph - N/A   Clear
6:55 AM 69.1 °F - 64.8 °F 86% 30.04 in 10.0 mi SE 3.5 mph - N/A   Clear
7:15 AM 70.3 °F - 65.7 °F 85% 30.05 in 10.0 mi Calm Calm - N/A   Clear
7:35 AM 71.6 °F - 65.8 °F 82% 30.05 in 10.0 mi SE 4.6 mph - N/A   Clear
7:55 AM 72.3 °F - 66.0 °F 80% 30.05 in 10.0 mi SE 3.5 mph - N/A   Clear
8:15 AM 73.2 °F - 66.4 °F 79% 30.05 in 10.0 mi ESE 4.6 mph - N/A   Clear
8:35 AM 75.0 °F - 67.1 °F 76% 30.06 in 10.0 mi SE 4.6 mph - N/A   Clear
8:55 AM 76.1 °F - 67.1 °F 74% 30.06 in 10.0 mi SSE 4.6 mph - N/A   Clear
9:15 AM 77.4 °F - 66.7 °F 70% 30.06 in 10.0 mi South 4.6 mph - N/A   Clear
9:35 AM 77.9 °F - 67.3 °F 70% 30.06 in 10.0 mi ESE 6.9 mph - N/A   Clear
9:55 AM 78.1 °F - 66.7 °F 68% 30.06 in 10.0 mi ESE 5.8 mph - N/A   Clear
10:15 AM 79.3 °F - 67.1 °F 66% 30.06 in 10.0 mi SSE 6.9 mph - N/A   Clear
10:35 AM 79.9 °F - 66.2 °F 63% 30.06 in 10.0 mi South 5.8 mph - N/A   Scattered Clouds
10:55 AM 79.9 °F - 66.7 °F 64% 30.06 in 10.0 mi SE 3.5 mph - N/A   Scattered Clouds
11:15 AM 81.0 °F 83.2 °F 66.4 °F 61% 30.06 in 10.0 mi East 3.5 mph - N/A   Scattered Clouds
11:35 AM 81.1 °F 83.1 °F 65.5 °F 59% 30.06 in 10.0 mi ESE 5.8 mph - N/A   Scattered Clouds
11:55 AM 81.5 °F 83.3 °F 64.9 °F 57% 30.06 in 10.0 mi ESE 4.6 mph - N/A   Scattered Clouds
12:15 PM 82.0 °F 83.8 °F 64.8 °F 56% 30.06 in 10.0 mi East 5.8 mph - N/A   Scattered Clouds
12:35 PM 82.6 °F 84.1 °F 64.4 °F 54% 30.05 in 10.0 mi East 5.8 mph - N/A   Scattered Clouds
12:55 PM 83.3 °F 85.3 °F 65.8 °F 55% 30.05 in 10.0 mi SSE 8.1 mph - N/A   Scattered Clouds
1:15 PM 82.6 °F 84.5 °F 65.3 °F 56% 30.05 in 10.0 mi SE 9.2 mph - N/A   Scattered Clouds
1:35 PM 82.9 °F 84.6 °F 64.8 °F 54% 30.04 in 10.0 mi SE 11.5 mph - N/A   Mostly Cloudy
1:55 PM 82.9 °F 84.8 °F 65.1 °F 55% 30.04 in 10.0 mi ESE 6.9 mph - N/A   Mostly Cloudy
2:15 PM 83.7 °F 85.1 °F 64.6 °F 52% 30.03 in 10.0 mi ESE 6.9 mph - N/A   Mostly Cloudy
2:35 PM 84.0 °F 85.2 °F 63.5 °F 50% 30.03 in 10.0 mi ESE 5.8 mph - N/A   Scattered Clouds
2:55 PM 85.5 °F 86.1 °F 62.6 °F 46% 30.03 in 10.0 mi SSE 6.9 mph - N/A Thunderstorm Scattered Clouds
3:15 PM 84.4 °F 85.2 °F 62.6 °F 48% 30.02 in 10.0 mi SE 10.4 mph - N/A   Scattered Clouds
3:55 PM 85.3 °F 86.4 °F 63.7 °F 48% 30.01 in 10.0 mi ESE 6.9 mph 17.3 mph N/A   Clear
4:15 PM 84.6 °F 85.4 °F 63.0 °F 48% 30.00 in 10.0 mi SE 10.4 mph - N/A   Clear
4:35 PM 86.2 °F 87.3 °F 63.5 °F 47% 29.99 in 10.0 mi SE 8.1 mph - N/A   Clear
4:55 PM 84.9 °F 86.1 °F 63.7 °F 49% 29.99 in 10.0 mi SE 17.3 mph 21.9 mph N/A   Scattered Clouds
5:35 PM 85.1 °F 86.6 °F 64.8 °F 50% 29.98 in 10.0 mi SE 15.0 mph - N/A   Clear
5:55 PM 85.5 °F 87.4 °F 65.7 °F 51% 29.98 in 10.0 mi SE 15.0 mph - N/A   Scattered Clouds
6:15 PM 84.7 °F 85.9 °F 63.5 °F 49% 29.97 in 10.0 mi SE 15.0 mph - N/A   Scattered Clouds
6:35 PM 84.4 °F 85.9 °F 64.2 °F 51% 29.96 in 10.0 mi SE 10.4 mph - N/A   Clear
6:55 PM 84.4 °F 86.1 °F 64.8 °F 52% 29.96 in 10.0 mi SSE 10.4 mph 17.3 mph N/A   Scattered Clouds
7:15 PM 83.7 °F 84.5 °F 62.4 °F 49% 29.96 in 10.0 mi SE 11.5 mph 18.4 mph N/A   Scattered Clouds
7:35 PM 83.5 °F 84.3 °F 62.4 °F 49% 29.98 in 10.0 mi SE 13.8 mph 18.4 mph N/A   Clear
7:55 PM 82.8 °F 83.6 °F 62.4 °F 50% 29.98 in 10.0 mi SE 9.2 mph - N/A   Clear
8:15 PM 81.9 °F 82.8 °F 62.1 °F 51% 29.99 in 10.0 mi SE 8.1 mph - N/A   Clear
8:55 PM 81.0 °F 82.6 °F 64.6 °F 57% 30.01 in 10.0 mi ESE 12.7 mph - N/A   Scattered Clouds
9:15 PM 78.6 °F - 63.7 °F 60% 30.02 in 10.0 mi SE 11.5 mph 18.4 mph N/A   Clear
9:35 PM 77.7 °F - 63.5 °F 61% 30.03 in 10.0 mi ESE 9.2 mph - N/A   Scattered Clouds
9:55 PM 76.3 °F - 63.7 °F 65% 30.03 in 10.0 mi ESE 5.8 mph - N/A   Clear
10:15 PM 75.6 °F - 63.9 °F 67% 30.04 in 10.0 mi SE 4.6 mph - N/A   Clear
10:35 PM 75.4 °F - 64.0 °F 68% 30.04 in 10.0 mi SE 4.6 mph - N/A   Clear
10:55 PM 75.6 °F - 64.4 °F 68% 30.04 in 10.0 mi ESE 5.8 mph - N/A   Clear
11:15 PM 75.4 °F - 64.8 °F 69% 30.05 in 10.0 mi SE 8.1 mph - N/A   Clear
11:35 PM 75.2 °F - 65.5 °F 72% 30.05 in 10.0 mi ESE 6.9 mph - N/A   Clear
11:55 PM 74.7 °F - 66.0 °F 74% 30.04 in 10.0 mi SE 9.2 mph - N/A   Clear